Weather History for Charlotte, NC

Change the Weather History Date:

Wednesday, May 1, 2013

  Actual Average Record
Temperature  
Mean Temperature 58 °F 63 °F  
Max Temperature 65 °F 76 °F 92 °F (1962)
Min Temperature 51 °F 51 °F 37 °F (1963)
Degree Days  
Heating Degree Days 7 4  
Month to date heating degree days 7 4  
Since 1 July heating degree days 3154 3336  
Cooling Degree Days 0 2  
Month to date cooling degree days 0 2  
Year to date cooling degree days 43 39  
Growing Degree Days 8 (Base 50)    
Moisture  
Dew Point 55 °F    
Average Humidity 86    
Maximum Humidity 100    
Minimum Humidity 72    
Precipitation  
Precipitation 0.02 in 0.09 in 1.84 in (1989)
Month to date precipitation 0.02 0.09  
Year to date precipitation 15.77 13.87  
Snow  
Snow 0.00 in 0.00 in 0.00 in ()
Month to date snowfall 0.0 0.0  
Since 1 July snowfall 2.7 4.3  
Snow Depth 0.00 in    
Sea Level Pressure  
Sea Level Pressure 30.23 in    
Wind  
Wind Speed 9 mph (NNE)    
Max Wind Speed 18 mph    
Max Gust Speed 25 mph    
Visibility 10 miles    
Events Rain    
T = Trace of Precipitation, MM = Missing Value Source: NWS Daily Summary

Daily Weather History Graph

Daily Weather History Graph

Search for Another Location

Airport:

Trip Planner

Search our weather history database for the weather conditions in past years. The results will help you decide how hot, cold, wet, or windy it might be!

Date:

Astronomy

May. 01, 2013 Rise Set
Actual Time 6:32 AM EDT 8:09 PM EDT
Civil Twilight 6:05 AM EDT 8:37 PM EDT
Nautical Twilight 5:32 AM EDT 9:09 PM EDT
Astronomical Twilight 4:58 AM EDT 9:44 PM EDT
Moon 1:17 AM EDT (5/1) 12:08 PM EDT (5/1)
Length of Visible Light 14h 31m
Length of Day
13h 37m
Waning Gibbous, 59% of the Moon is Illuminated
May 1
Waning Gibbous
May 2
Last Quarter
May 9
New
May 18
First Quarter
May 25
Full

Hourly Weather History & Observations

Time (EDT) Temp. Dew Point Humidity Pressure Visibility Wind Dir Wind Speed Gust Speed Precip Events Conditions
12:52 AM 57.9 °F 53.1 °F 84% 30.17 in 10.0 mi NNE 5.8 mph - N/A   Clear
1:52 AM 57.0 °F 53.1 °F 87% 30.18 in 10.0 mi NE 8.1 mph - N/A   Clear
2:52 AM 54.0 °F 52.0 °F 93% 30.18 in 10.0 mi NNW 4.6 mph - N/A   Clear
3:52 AM 52.0 °F 51.1 °F 97% 30.17 in 9.0 mi North 5.8 mph - N/A   Clear
4:39 AM 51.8 °F 51.8 °F 100% 30.19 in 10.0 mi North 6.9 mph - N/A   Mostly Cloudy
4:52 AM 54.0 °F 53.1 °F 97% 30.18 in 10.0 mi NNE 8.1 mph - N/A   Overcast
5:02 AM 53.6 °F 53.6 °F 100% 30.19 in 10.0 mi NNE 8.1 mph - N/A   Overcast
5:52 AM 53.1 °F 51.1 °F 93% 30.19 in 10.0 mi NNE 3.5 mph - N/A   Partly Cloudy
6:14 AM 55.4 °F 53.6 °F 94% 30.21 in 10.0 mi NNE 3.5 mph - N/A   Mostly Cloudy
6:44 AM 55.4 °F 53.6 °F 94% 30.22 in 10.0 mi North 6.9 mph - N/A   Overcast
6:52 AM 55.0 °F 54.0 °F 96% 30.21 in 10.0 mi NNE 8.1 mph - N/A   Overcast
7:25 AM 55.4 °F 53.6 °F 94% 30.22 in 10.0 mi North 8.1 mph - N/A   Overcast
7:52 AM 57.0 °F 55.0 °F 93% 30.22 in 10.0 mi NNE 6.9 mph - N/A   Overcast
8:52 AM 60.1 °F 55.0 °F 83% 30.24 in 10.0 mi North 9.2 mph - N/A   Overcast
9:09 AM 60.8 °F 55.4 °F 82% 30.25 in 10.0 mi NNE 10.4 mph - N/A   Overcast
9:52 AM 61.0 °F 55.0 °F 81% 30.24 in 10.0 mi NNE 10.4 mph - N/A   Overcast
10:52 AM 61.0 °F 55.0 °F 81% 30.27 in 10.0 mi NNE 10.4 mph - N/A   Overcast
11:52 AM 62.1 °F 54.0 °F 75% 30.27 in 10.0 mi ENE 10.4 mph 21.9 mph N/A   Overcast
12:52 PM 61.0 °F 55.0 °F 81% 30.25 in 9.0 mi NE 13.8 mph 23.0 mph 0.00 in Rain Light Rain
1:52 PM 64.9 °F 55.0 °F 70% 30.23 in 10.0 mi NE 10.4 mph - 0.00 in   Overcast
2:52 PM 64.0 °F 55.0 °F 73% 30.25 in 10.0 mi NNE 12.7 mph 18.4 mph N/A   Overcast
3:52 PM 64.0 °F 55.0 °F 73% 30.24 in 10.0 mi ENE 9.2 mph - N/A   Overcast
4:52 PM 64.0 °F 55.9 °F 75% 30.24 in 10.0 mi NE 11.5 mph - N/A   Overcast
5:52 PM 63.0 °F 55.9 °F 78% 30.24 in 10.0 mi NE 11.5 mph - 0.00 in   Overcast
6:52 PM 62.1 °F 55.9 °F 80% 30.24 in 10.0 mi NE 10.4 mph - 0.00 in   Overcast
7:52 PM 61.0 °F 57.0 °F 87% 30.25 in 10.0 mi NE 8.1 mph - 0.00 in Rain Light Rain
8:52 PM 60.1 °F 57.0 °F 90% 30.26 in 10.0 mi ENE 10.4 mph 21.9 mph 0.00 in   Overcast
9:08 PM 60.8 °F 57.2 °F 88% 30.27 in 8.0 mi NE 9.2 mph - N/A   Overcast
9:52 PM 59.0 °F 55.9 °F 90% 30.27 in 10.0 mi ENE 10.4 mph - 0.00 in   Overcast
10:52 PM 59.0 °F 55.0 °F 87% 30.29 in 10.0 mi ENE 10.4 mph 21.9 mph N/A   Overcast
11:52 PM 59.0 °F 55.0 °F 87% 30.28 in 10.0 mi NE 6.9 mph - N/A   Overcast